Location: Astronomy Club of Akron Observatory
(40.9700°N, 81.5606°W)
Time: 07:56:01
(UTC-04:00)

ISS - Pass Details

Date: 16 July 2018
Orbit: 402 x 408 km, 51.6° (Epoch: 21 July)

Event Time Altitude Azimuth Distance (km) Brightness Sun altitude
Exits shadow 02:42:29 - 313° (NW) 1,548 -0.6 -25.6°
Reaches altitude 10° 02:42:49 10° 318° (NW) 1,469 -0.7 -25.6°
Maximum altitude 02:44:39 14° 352° (N) 1,250 -0.6 -25.4°
Drops below altitude 10° 02:46:30 10° 26° (NNE) 1,471 0.0 -25.3°
Sets 02:49:21 0° 53° (NE) 2,334 0.9 -25.2°
